Regional Weather Roundup
Issued by NWS

Home | Current Version | Previous Version | Graphics & Text | Print | Product List | Glossary On
Versions: 1 2 3 4 5 6 7 8 9 10 11 12 13 14 15 16 17 18 19 20 21 22 23 24 25 26 27 28 29 30 31 32 33 34 35 36 37 38 39 40 41 42 43 44 45 46 47 48 49 50
954
ASUS43 KLMK 240010
RWRKY
KENTUCKY REGIONAL WEATHER ROUNDUP
NATIONAL WEATHER SERVICE LOUISVILLE KY
800 PM EDT FRI JUN 23 2017

NOTE "FAIR" INDICATES FEW OR NO CLOUDS BELOW 12,000 FEET
WITH NO SIGNIFICANT WEATHER AND/OR OBSTRUCTIONS TO VISIBILITY.

KYZ001>023-026-027-061>063-070>075-240100-
WESTERN AND SOUTH CENTRAL KENTUCKY

CITY           SKY/WX    TMP DP  RH WIND       PRES   REMARKS
PADUCAH        CLOUDY    76  71  85 CALM      29.78R
HENDERSON      CLOUDY    75  71  87 NW8       29.77R
OWENSBORO      CLOUDY    78  73  84 NW12      29.74R
HOPKINSVILLE   MOSUNNY   80  74  83 SW9       29.77R
BOWLING GREEN  CLOUDY    77  75  93 W7        29.77R
GLASGOW        CLOUDY    73  73 100 W7        29.78R
$$

KYZ024-025-028>034-038-045-046-053-240100-
NORTH CENTRAL KENTUCKY

CITY           SKY/WX    TMP DP  RH WIND       PRES   REMARKS
LOUISVILLE/SDF CLOUDY    74  73  97 NW7       29.70R
LOUISVILLE/LOU CLOUDY    76  74  93 W5        29.70R
FORT KNOX      CLOUDY    72  72 100 W5        29.72R
$$

KYZ035>037-039>044-047>052-055>060-089>105-240100-
NORTHEAST KENTUCKY

CITY           SKY/WX    TMP DP  RH WIND       PRES   REMARKS
LEXINGTON      HVY RAIN  68  66  93 NE16      29.68R FOG
COVINGTON      RAIN      68  68 100 E5        29.70F FOG
FRANKFORT      LGT RAIN  70  67  90 N7        29.67R
$$

KYZ054-064>069-076>088-106>120-240100-
SOUTHEAST KENTUCKY

CITY           SKY/WX    TMP DP  RH WIND       PRES   REMARKS
JACKSON        LGT RAIN  73  70  90 VRB3      29.69F
LONDON         LGT RAIN  74  69  85 SW15G28   29.70R
SOMERSET       HVY RAIN  68  68 100 W9G37     29.75R
MIDDLESBORO    CLOUDY    75  70  86 S9G24     29.76R
MONTICELLO     LGT RAIN  73  71  93 W26G38    29.75R FOG
$$





USA.gov is the U.S. government's official web portal to all federal, state and local government web resources and services.